Regional Weather Roundup
Issued by NWS

Home | Current Version | Previous Version | Text Only | Print | Product List | Glossary Off
Versions: 1 2 3 4 5 6 7 8 9 10 11 12 13 14 15 16 17 18 19 20 21 22 23 24 25 26 27

000
ASUS45 KCYS 201010
RWRWY

WYOMING REGIONAL WEATHER ROUNDUP
NATIONAL WEATHER SERVICE CHEYENNE WY
400 AM MDT THU JUL 20 2017

NOTE:  "FAIR" INDICATES FEW OR NO CLOUDS BELOW 12,000 FEET
WITH NO SIGNIFICANT WEATHER AND/OR OBSTRUCTIONS TO VISIBILITY.

WYZ001-201100-
YELLOWSTONE NATIONAL PARK

CITY           SKY/WX    TMP DP  RH WIND       PRES   REMARKS
LK YELLOWSTONE   N/A     42  36  79 CALM      30.32R
W YELLOWSTONE  NOT AVBL

$$
WYZ002>013-054>058-071-098>099-201100-
NORTHERN WYOMING

CITY           SKY/WX    TMP DP  RH WIND       PRES   REMARKS
JACKSON        FAIR      46  39  76 NE5       30.24R
CODY           FAIR      67  41  38 W3        30.08S
GREYBULL         N/A     76  49  38 VRB3      29.98F
WORLAND        FAIR      72  54  53 SE13      30.00F
SHERIDAN       FAIR      66  50  56 CALM      30.01S
BUFFALO        FAIR      68  48  48 SE8       30.08S
GILLETTE       FAIR      71  54  54 S13       30.08F
HULETT         FAIR      70  54  56 S6        30.12S
NEWCASTLE      FAIR      68  52  56 E6        30.13R

$$
WYZ014>020-022>026-101>103-201100-
CENTRAL WYOMING

CITY           SKY/WX    TMP DP  RH WIND       PRES   REMARKS
BIG PINEY      FAIR      54  49  83 N3        30.31S
PINEDALE       FAIR      52  50  93 NW3       30.32S
DUBOIS         FAIR      54  34  47 NW3       30.29S
LANDER         FAIR      65  53  65 W7        30.13S
RIVERTON       FAIR      64  56  75 NW12      30.13S
CASPER         FAIR      64  54  69 SW5       30.16S
DOUGLAS        FAIR      67  57  70 SE9       30.16F

$$
WYZ021-027>030-104>119-201100-
SOUTHERN WYOMING

CITY           SKY/WX    TMP DP  RH WIND       PRES   REMARKS
EVANSTON       FAIR      61  50  67 S5        30.28S
KEMMERER         N/A     55  45  67 N8        30.30S
FORT BRIDGER   SUNNY     61  48  63 NW8       30.30F
ROCK SPRINGS   FAIR      61  51  70 S9        30.26S
RAWLINS        FAIR      58  53  84 NW5       30.29R
SARATOGA       FAIR      59  55  88 SE6       30.31S
LARAMIE        FAIR      58  54  86 E5        30.33S
CHEYENNE       FAIR      63  55  75 NW6       30.26F
TORRINGTON     FAIR      67  64  90 NW5       30.12S
PINE BLUFFS    FAIR      63  61  94 N3        30.21R

$$




USA.gov is the U.S. government's official web portal to all federal, state and local government web resources and services.